Location: Melbourne
(37.8170°S, 144.9670°E)
Time: 06:55:54
(UTC+10:00)

Explorer 11/Cluster Stage 4 - Visible Passes

Search period start: 29 June 2017 00:00
Search period end: 09 July 2017 00:00
Orbit: 467 x 1263 km, 28.8° (Epoch: 27 June)

Date Brightness Start Highest point End Pass type
(mag) Time Alt. Az. Time Alt. Az. Time Alt. Az.
03 Jul 9.3 06:59:22 10° N 07:00:44 11° NNE 07:02:02 10° NNE visible
04 Jul 9.2 06:47:50 10° NNW 06:50:38 14° NNE 06:53:10 10° NE visible
05 Jul 9.0 06:36:48 10° NNW 06:40:31 17° NNE 06:43:47 10° NE visible
06 Jul 8.8 06:25:56 10° NNW 06:30:22 20° NNE 06:34:13 10° ENE visible
07 Jul 9.5 04:29:53 10° N 04:31:56 11° NNE 04:33:53 10° NE visible
07 Jul 8.7 06:15:11 10° NW 06:20:14 23° NNE 06:24:32 10° ENE visible
08 Jul 9.3 04:20:29 14° NNE 04:21:42 14° NNE 04:25:02 10° NE visible
08 Jul 8.5 06:04:30 10° NW 06:10:03 27° N 06:14:45 10° ENE visible
